Abakan, Russia

6:46 AM +07 on November 19, 2019 (GMT +0700)
Abakan

Weather History for UNAA - September, 2019

Change the Weather History Date:

Sunday, September 22, 2019

  Actual Average Record
Temperature  
Mean Temperature 50 °F -  
Max Temperature 66 °F - - ()
Min Temperature 35 °F - - ()
Degree Days  
Heating Degree Days 14    
Moisture  
Dew Point 43 °F    
Average Humidity 80    
Maximum Humidity 100    
Minimum Humidity 49    
Precipitation  
Precipitation 0.00 in - - ()
Sea Level Pressure  
Sea Level Pressure 30.17 in    
Wind  
Wind Speed 2 mph ()    
Max Wind Speed 4 mph    
Max Gust Speed -    
Visibility 4.9 miles    
Events      
T = Trace of Precipitation, MM = Missing Value Source: Averaged Metar Reports

Daily Weather History Graph

Daily Weather History Graph

Search for Another Location

Airport or City:

Astronomy

Sep. 22, 2019 Rise Set
Actual Time 6:39 AM +07 6:54 PM +07
Civil Twilight 6:03 AM +07 7:29 PM +07
Nautical Twilight 5:22 AM +07 8:11 PM +07
Astronomical Twilight 4:38 AM +07 8:55 PM +07
Moon 10:59 PM +07 (9/22) 3:15 PM +07 (9/22)
Length of Visible Light 13h 25m
Length of Day
12h 15m
Waning Gibbous, 49% of the Moon is Illuminated
Sep 22
Waning Gibbous
Sep 29
New
Oct 5
First Quarter
Oct 14
Full
Oct 21
Last Quarter

Hourly Weather History & Observations

Time (+07) Temp. Windchill Dew Point Humidity Pressure Visibility Wind Dir Wind Speed Gust Speed Precip Events Conditions
12:00 AM 42.8 °F - 41.0 °F 93% 30.21 in 5.6 mi NNE 2.2 mph - N/A   Unknown
12:30 AM 42.8 °F - 42.8 °F 100% 30.21 in - NNE 2.2 mph - N/A   Clear
1:00 AM 42.8 °F - 41.0 °F 93% 30.21 in - Calm Calm - N/A   Clear
1:30 AM 41.0 °F - 39.2 °F 93% 30.24 in - Calm Calm - N/A   Clear
2:00 AM 41.0 °F - 39.2 °F 93% 30.24 in - Calm Calm - N/A   Clear
2:30 AM 39.2 °F - 37.4 °F 93% 30.24 in - Calm Calm - N/A   Clear
3:00 AM 42.8 °F - 41.0 °F 93% 30.24 in - NE 2.2 mph - N/A   Clear
3:30 AM 41.0 °F 38.1 °F 39.2 °F 93% 30.24 in - NE 4.5 mph - N/A   Clear
4:00 AM 39.2 °F - 37.4 °F 93% 30.27 in - SSW 2.2 mph - N/A   Clear
4:30 AM 37.4 °F - 35.6 °F 93% 30.27 in - Calm Calm - N/A   Clear
5:00 AM 37.4 °F - 35.6 °F 93% 30.27 in - Calm Calm - N/A   Clear
5:30 AM 37.4 °F - 35.6 °F 93% 30.27 in - North 2.2 mph - N/A   Clear
6:00 AM 35.6 °F - 33.8 °F 93% 30.27 in - North 2.2 mph - N/A   Clear
6:30 AM 35.6 °F - 33.8 °F 93% 30.27 in - Calm Calm - N/A   Clear
7:00 AM 35.6 °F - 33.8 °F 93% 30.27 in - Calm Calm - N/A   Clear
7:30 AM 35.6 °F - 35.6 °F 100% 30.27 in - South 2.2 mph - N/A   Clear
8:00 AM 39.2 °F - 39.2 °F 100% 30.27 in - Calm Calm - N/A   Clear
8:30 AM 41.0 °F - 39.2 °F 93% 30.27 in - SSW 2.2 mph - N/A   Clear
9:00 AM 46.4 °F - 41.0 °F 81% 30.27 in - Calm Calm - N/A   Clear
9:30 AM 48.2 °F - 42.8 °F 82% 30.27 in - Calm Calm - N/A   Clear
10:00 AM 50.0 °F - 44.6 °F 82% 30.24 in - Variable 2.2 mph - N/A   Clear
10:30 AM 51.8 °F - 46.4 °F 82% 30.24 in - Variable 2.2 mph - N/A   Clear
11:00 AM 55.4 °F - 46.4 °F 72% 30.24 in - Variable 2.2 mph - N/A   Clear
11:30 AM 55.4 °F - 44.6 °F 67% 30.21 in - North 2.2 mph - N/A   Clear
12:00 PM 59.0 °F - 46.4 °F 63% 30.21 in - North 2.2 mph - N/A   Clear
12:30 PM 59.0 °F - 46.4 °F 63% 30.18 in - East 4.5 mph - N/A   Clear
1:30 PM 60.8 °F - 48.2 °F 63% 30.18 in 5.6 mi NNW 4.5 mph - N/A   Unknown
2:00 PM 60.8 °F - 48.2 °F 63% 30.15 in 5.6 mi NNW 4.5 mph - N/A   Smoke
2:30 PM 62.6 °F - 48.2 °F 59% 30.15 in - Variable 2.2 mph - N/A   Clear
3:00 PM 64.4 °F - 48.2 °F 56% 30.12 in - Variable 2.2 mph - N/A   Clear
3:30 PM 64.4 °F - 46.4 °F 52% 30.12 in 5.6 mi NNW 4.5 mph - N/A   Unknown
4:00 PM 66.2 °F - 46.4 °F 49% 30.09 in 5.0 mi WNW 2.2 mph - N/A   Unknown
4:30 PM 66.2 °F - 46.4 °F 49% 30.09 in - NNE 4.5 mph - N/A   Clear
5:00 PM 66.2 °F - 46.4 °F 49% 30.09 in - Variable 2.2 mph - N/A   Clear
5:30 PM 64.4 °F - 48.2 °F 56% 30.09 in - North 4.5 mph - N/A   Clear
6:30 PM 60.8 °F - 48.2 °F 63% 30.06 in - North 4.5 mph - N/A   Clear
7:00 PM 57.2 °F - 46.4 °F 67% 30.06 in - NNW 4.5 mph - N/A   Clear
7:30 PM 55.4 °F - 46.4 °F 72% 30.06 in 5.6 mi NNW 4.5 mph - N/A   Unknown
8:00 PM 51.8 °F - 44.6 °F 76% 30.06 in - NNW 4.5 mph - N/A   Smoke
8:30 PM 50.0 °F - 46.4 °F 87% 30.04 in 2.2 mi NNW 2.2 mph - N/A   Smoke
9:00 PM 48.2 °F - 44.6 °F 87% 30.04 in - NNW 2.2 mph - N/A   Smoke
9:30 PM 46.4 °F 44.4 °F 44.6 °F 93% 30.04 in 3.7 mi WNW 4.5 mph - N/A   Unknown
10:00 PM 46.4 °F 44.4 °F 42.8 °F 87% 30.01 in - West 4.5 mph - N/A   Smoke
10:30 PM 46.4 °F 44.4 °F 42.8 °F 87% 30.01 in 5.0 mi West 4.5 mph - N/A   Unknown
11:00 PM 46.4 °F - 42.8 °F 87% 30.01 in - WSW 2.2 mph - N/A   Clear
11:30 PM 46.4 °F - 42.8 °F 87% 29.98 in - Calm Calm - N/A   Clear